Location: Newark
(53.7833°N, 9.4833°E)
Time: 06:20:03
(UTC+00:00)

Envisat - Pass Details

Date: 11 December 2019
Orbit: 764 x 766 km, 98.1° (Epoch: 17 January)

Event Time Altitude Azimuth Distance (km) Brightness Sun altitude
Rises 05:39:37 0° 19° (NNE) 3,248 6.3 -14.9°
Reaches altitude 10° 05:42:06 10° 28° (NNE) 2,316 5.6 -14.5°
Maximum altitude 05:46:51 38° 96° (E) 1,160 4.6 -13.9°
Drops below altitude 10° 05:51:34 10° 164° (SSE) 2,299 6.0 -13.2°
Sets 05:54:01 0° 173° (S) 3,220 6.6 -12.9°
